owner,sensor,date,latitude,longitude,vertical_datum,wind_speed,wind_to_direction,wind_speed_of_gust,qcFlag 
COMPS,ioos:station:USF.COMPS:BGC:1,2013-12-03T16:00:00Z,26.4040,-81.8810,10.0,3.13,164.37,4.41,'1111122,1111122,1111122' 
COMPS,ioos:station:USF.COMPS:BGC:1,2013-12-03T16:06:00Z,26.4040,-81.8810,10.0,3.93,172.62,5.19,'1111122,1111122,1111122' 
COMPS,ioos:station:USF.COMPS:BGC:1,2013-12-03T16:12:00Z,26.4040,-81.8810,10.0,4.39,172.69,5.29,'1111122,1111122,1111122' 
COMPS,ioos:station:USF.COMPS:BGC:1,2013-12-03T16:18:00Z,26.4040,-81.8810,10.0,4.72,160.52,6.27,'1111122,1111122,1111122' 
COMPS,ioos:station:USF.COMPS:BGC:1,2013-12-03T16:24:00Z,26.4040,-81.8810,10.0,4.37,159.44,5.48,'1111122,1111122,1111122' 
COMPS,ioos:station:USF.COMPS:BGC:1,2013-12-03T16:30:00Z,26.4040,-81.8810,10.0,3.8,166.12,4.5,'1111122,1111122,1111122' 
COMPS,ioos:station:USF.COMPS:BGC:1,2013-12-03T16:36:00Z,26.4040,-81.8810,10.0,4.39,176.1,6.27,'1111122,1111122,1111122' 
COMPS,ioos:station:USF.COMPS:BGC:1,2013-12-03T16:42:00Z,26.4040,-81.8810,10.0,5.18,173.84,6.27,'1111122,1111122,1111122' 
COMPS,ioos:station:USF.COMPS:BGC:1,2013-12-03T16:48:00Z,26.4040,-81.8810,10.0,4.54,179.14,6.17,'1111122,1111122,1111122' 
COMPS,ioos:station:USF.COMPS:BGC:1,2013-12-03T16:54:00Z,26.4040,-81.8810,10.0,4.76,181.0,6.66,'1111122,1111122,1111122' 
COMPS,ioos:station:USF.COMPS:BGC:1,2013-12-03T17:00:00Z,26.4040,-81.8810,10.0,5.39,178.88,6.17,'1111122,1111122,1111122' 
COMPS,ioos:station:USF.COMPS:BGC:1,2013-12-03T17:06:00Z,26.4040,-81.8810,10.0,5.47,177.7,6.66,'1111122,1111122,1111122' 
COMPS,ioos:station:USF.COMPS:BGC:1,2013-12-03T17:12:00Z,26.4040,-81.8810,10.0,5.45,182.58,6.86,'1111122,1111122,1111122' 
COMPS,ioos:station:USF.COMPS:BGC:1,2013-12-03T17:18:00Z,26.4040,-81.8810,10.0,5.38,179.72,7.15,'1111122,1111122,1111122' 
COMPS,ioos:station:USF.COMPS:BGC:1,2013-12-03T17:24:00Z,26.4040,-81.8810,10.0,4.7,175.86,6.66,'1111122,1111122,1111122' 
COMPS,ioos:station:USF.COMPS:BGC:1,2013-12-03T17:30:00Z,26.4040,-81.8810,10.0,5.35,180.61,6.86,'1111122,1111122,1111122' 
COMPS,ioos:station:USF.COMPS:BGC:1,2013-12-03T17:36:00Z,26.4040,-81.8810,10.0,5.95,177.87,7.35,'1111122,1111122,1111122' 
COMPS,ioos:station:USF.COMPS:BGC:1,2013-12-03T17:42:00Z,26.4040,-81.8810,10.0,6.21,179.15,7.64,'1111122,1111122,1111122' 
COMPS,ioos:station:USF.COMPS:BGC:1,2013-12-03T17:48:00Z,26.4040,-81.8810,10.0,6.37,179.33,7.35,'1111122,1111122,1111122' 
COMPS,ioos:station:USF.COMPS:BGC:1,2013-12-03T17:54:00Z,26.4040,-81.8810,10.0,6.11,179.33,7.93,'1111122,1111122,1111122' 
COMPS,ioos:station:USF.COMPS:BGC:1,2013-12-03T18:00:00Z,26.4040,-81.8810,10.0,6.52,175.35,7.74,'1111122,1111122,1111122' 
COMPS,ioos:station:USF.COMPS:BGC:1,2013-12-03T18:06:00Z,26.4040,-81.8810,10.0,6.43,176.12,7.35,'1111122,1111122,1111122' 
COMPS,ioos:station:USF.COMPS:BGC:1,2013-12-03T18:12:00Z,26.4040,-81.8810,10.0,5.36,169.69,7.44,'1111122,1111122,1111122' 
COMPS,ioos:station:USF.COMPS:BGC:1,2013-12-03T18:18:00Z,26.4040,-81.8810,10.0,5.05,176.56,6.07,'1111122,1111122,1111122' 
COMPS,ioos:station:USF.COMPS:BGC:1,2013-12-03T18:24:00Z,26.4040,-81.8810,10.0,5.15,175.01,6.95,'1111122,1111122,1111122' 
COMPS,ioos:station:USF.COMPS:BGC:1,2013-12-03T18:30:00Z,26.4040,-81.8810,10.0,4.84,187.24,6.07,'1111122,1111122,1111122' 
COMPS,ioos:station:USF.COMPS:BGC:1,2013-12-03T18:36:00Z,26.4040,-81.8810,10.0,4.39,190.4,5.78,'1111122,1111122,1111122' 
COMPS,ioos:station:USF.COMPS:BGC:1,2013-12-03T18:42:00Z,26.4040,-81.8810,10.0,4.56,182.96,5.58,'1111122,1111122,1111122' 
COMPS,ioos:station:USF.COMPS:BGC:1,2013-12-03T18:48:00Z,26.4040,-81.8810,10.0,5.16,186.86,6.66,'1111122,1111122,1111122' 
COMPS,ioos:station:USF.COMPS:BGC:1,2013-12-03T18:54:00Z,26.4040,-81.8810,10.0,5.25,183.96,6.76,'1111122,1111122,1111122' 
COMPS,ioos:station:USF.COMPS:BGC:1,2013-12-03T19:00:00Z,26.4040,-81.8810,10.0,4.56,180.79,6.07,'1111122,1111122,1111122' 
COMPS,ioos:station:USF.COMPS:BGC:1,2013-12-03T19:06:00Z,26.4040,-81.8810,10.0,5.15,177.0,6.76,'1111122,1111122,1111122' 
COMPS,ioos:station:USF.COMPS:BGC:1,2013-12-03T19:12:00Z,26.4040,-81.8810,10.0,5.59,176.86,7.25,'1111122,1111122,1111122' 
COMPS,ioos:station:USF.COMPS:BGC:1,2013-12-03T19:18:00Z,26.4040,-81.8810,10.0,4.8,173.74,7.05,'1111122,1111122,1111122' 
COMPS,ioos:station:USF.COMPS:BGC:1,2013-12-03T19:24:00Z,26.4040,-81.8810,10.0,4.28,180.22,5.39,'1111122,1111122,1111122' 
COMPS,ioos:station:USF.COMPS:BGC:1,2013-12-03T19:30:00Z,26.4040,-81.8810,10.0,4.5,183.3,5.58,'1111122,1111122,1111122' 
COMPS,ioos:station:USF.COMPS:BGC:1,2013-12-03T19:36:00Z,26.4040,-81.8810,10.0,4.57,187.84,5.68,'1111122,1111122,1111122' 
COMPS,ioos:station:USF.COMPS:BGC:1,2013-12-03T19:42:00Z,26.4040,-81.8810,10.0,4.7,186.85,5.78,'1111122,1111122,1111122' 
COMPS,ioos:station:USF.COMPS:BGC:1,2013-12-03T19:48:00Z,26.4040,-81.8810,10.0,4.3,180.16,6.17,'1111122,1111122,1111122' 
COMPS,ioos:station:USF.COMPS:BGC:1,2013-12-03T19:54:00Z,26.4040,-81.8810,10.0,5.12,177.74,6.27,'1111122,1111122,1111122' 
COMPS,ioos:station:USF.COMPS:BGC:1,2013-12-03T20:00:00Z,26.4040,-81.8810,10.0,5.17,175.31,6.76,'1111122,1111122,1111122' 
COMPS,ioos:station:USF.COMPS:BGC:1,2013-12-03T20:06:00Z,26.4040,-81.8810,10.0,4.67,178.46,5.97,'1111122,1111122,1111122' 
COMPS,ioos:station:USF.COMPS:BGC:1,2013-12-03T20:12:00Z,26.4040,-81.8810,10.0,4.72,177.19,6.46,'1111122,1111122,1111122' 
COMPS,ioos:station:USF.COMPS:BGC:1,2013-12-03T20:18:00Z,26.4040,-81.8810,10.0,4.56,187.0,5.97,'1111122,1111122,1111122' 
COMPS,ioos:station:USF.COMPS:BGC:1,2013-12-03T20:24:00Z,26.4040,-81.8810,10.0,4.88,173.34,6.27,'1111122,1111122,1111122' 
COMPS,ioos:station:USF.COMPS:BGC:1,2013-12-03T20:30:00Z,26.4040,-81.8810,10.0,4.06,166.97,6.07,'1111122,1111122,1111122' 
COMPS,ioos:station:USF.COMPS:BGC:1,2013-12-03T20:36:00Z,26.4040,-81.8810,10.0,4.53,172.13,6.46,'1111122,1111122,1111122' 
COMPS,ioos:station:USF.COMPS:BGC:1,2013-12-03T20:42:00Z,26.4040,-81.8810,10.0,5.3,178.86,6.86,'1111122,1111122,1111122' 
COMPS,ioos:station:USF.COMPS:BGC:1,2013-12-03T20:48:00Z,26.4040,-81.8810,10.0,5.67,182.66,7.15,'1111122,1111122,1111122' 
COMPS,ioos:station:USF.COMPS:BGC:1,2013-12-03T20:54:00Z,26.4040,-81.8810,10.0,5.03,181.97,6.66,'1111122,1111122,1111122' 
COMPS,ioos:station:USF.COMPS:BGC:1,2013-12-03T21:00:00Z,26.4040,-81.8810,10.0,5.49,174.63,7.54,'1111122,1111122,1111122' 
COMPS,ioos:station:USF.COMPS:BGC:1,2013-12-03T21:06:00Z,26.4040,-81.8810,10.0,5.26,171.47,6.37,'1111122,1111122,1111122' 
COMPS,ioos:station:USF.COMPS:BGC:1,2013-12-03T21:12:00Z,26.4040,-81.8810,10.0,4.71,172.32,6.27,'1111122,1111122,1111122' 
COMPS,ioos:station:USF.COMPS:BGC:1,2013-12-03T21:18:00Z,26.4040,-81.8810,10.0,4.22,166.97,5.29,'1111122,1111122,1111122' 
COMPS,ioos:station:USF.COMPS:BGC:1,2013-12-03T21:24:00Z,26.4040,-81.8810,10.0,3.76,168.42,4.9,'1111122,1111122,1111122' 
COMPS,ioos:station:USF.COMPS:BGC:1,2013-12-03T21:30:00Z,26.4040,-81.8810,10.0,3.88,176.65,4.9,'1111122,1111122,1111122' 
COMPS,ioos:station:USF.COMPS:BGC:1,2013-12-03T21:36:00Z,26.4040,-81.8810,10.0,3.77,172.06,4.8,'1111122,1111122,1111122' 
COMPS,ioos:station:USF.COMPS:BGC:1,2013-12-03T21:42:00Z,26.4040,-81.8810,10.0,3.69,171.73,4.7,'1111122,1111122,1111122' 
COMPS,ioos:station:USF.COMPS:BGC:1,2013-12-03T21:48:00Z,26.4040,-81.8810,10.0,3.41,171.35,4.6,'1111122,1111122,1111122' 
COMPS,ioos:station:USF.COMPS:BGC:1,2013-12-03T21:54:00Z,26.4040,-81.8810,10.0,4.13,175.99,6.07,'1111122,1111122,1111122' 
COMPS,ioos:station:USF.COMPS:BGC:1,2013-12-03T22:00:00Z,26.4040,-81.8810,10.0,4.41,176.3,6.17,'1111122,1111122,1111122' 
COMPS,ioos:station:USF.COMPS:BGC:1,2013-12-03T22:06:00Z,26.4040,-81.8810,10.0,4.51,180.1,6.37,'1111122,1111122,1111122' 
COMPS,ioos:station:USF.COMPS:BGC:1,2013-12-03T22:12:00Z,26.4040,-81.8810,10.0,4.32,179.22,5.29,'1111122,1111122,1111122' 
COMPS,ioos:station:USF.COMPS:BGC:1,2013-12-03T22:18:00Z,26.4040,-81.8810,10.0,4.11,178.33,5.39,'1111122,1111122,1111122' 
COMPS,ioos:station:USF.COMPS:BGC:1,2013-12-03T22:24:00Z,26.4040,-81.8810,10.0,4.23,171.02,5.48,'1111122,1111122,1111122' 
COMPS,ioos:station:USF.COMPS:BGC:1,2013-12-03T22:30:00Z,26.4040,-81.8810,10.0,4.04,170.25,5.19,'1111122,1111122,1111122' 
COMPS,ioos:station:USF.COMPS:BGC:1,2013-12-03T22:36:00Z,26.4040,-81.8810,10.0,4.18,171.49,5.19,'1111122,1111122,1111122' 
COMPS,ioos:station:USF.COMPS:BGC:1,2013-12-03T22:42:00Z,26.4040,-81.8810,10.0,4.49,169.98,5.58,'1111122,1111122,1111122' 
COMPS,ioos:station:USF.COMPS:BGC:1,2013-12-03T22:48:00Z,26.4040,-81.8810,10.0,4.62,167.44,5.68,'1111122,1111122,1111122' 
COMPS,ioos:station:USF.COMPS:BGC:1,2013-12-03T22:54:00Z,26.4040,-81.8810,10.0,4.64,168.09,6.07,'1111122,1111122,1111122' 
COMPS,ioos:station:USF.COMPS:BGC:1,2013-12-03T23:00:00Z,26.4040,-81.8810,10.0,4.7,170.92,5.88,'1111122,1111122,1111122' 
COMPS,ioos:station:USF.COMPS:BGC:1,2013-12-03T23:06:00Z,26.4040,-81.8810,10.0,4.78,166.6,6.17,'1111122,1111122,1111122' 
COMPS,ioos:station:USF.COMPS:BGC:1,2013-12-03T23:12:00Z,26.4040,-81.8810,10.0,4.6,165.59,5.88,'1111122,1111122,1111122' 
COMPS,ioos:station:USF.COMPS:BGC:1,2013-12-03T23:18:00Z,26.4040,-81.8810,10.0,3.3,159.64,4.5,'1111122,1111122,1111122' 
COMPS,ioos:station:USF.COMPS:BGC:1,2013-12-03T23:24:00Z,26.4040,-81.8810,10.0,3.31,157.36,4.99,'1111122,1111122,1111122' 
COMPS,ioos:station:USF.COMPS:BGC:1,2013-12-03T23:30:00Z,26.4040,-81.8810,10.0,3.09,156.37,4.01,'1111122,1111122,1111122' 
COMPS,ioos:station:USF.COMPS:BGC:1,2013-12-03T23:36:00Z,26.4040,-81.8810,10.0,2.62,157.52,3.43,'1111122,1111122,1111122' 
COMPS,ioos:station:USF.COMPS:BGC:1,2013-12-03T23:42:00Z,26.4040,-81.8810,10.0,2.62,155.63,3.13,'1111122,1111122,1111122' 
COMPS,ioos:station:USF.COMPS:BGC:1,2013-12-03T23:48:00Z,26.4040,-81.8810,10.0,2.54,155.86,3.43,'1111122,1111122,1111122' 
COMPS,ioos:station:USF.COMPS:BGC:1,2013-12-03T23:54:00Z,26.4040,-81.8810,10.0,2.09,167.67,2.54,'1111122,1111122,1111122' 
COMPS,ioos:station:USF.COMPS:BGC:1,2013-12-04T00:00:00Z,26.4040,-81.8810,10.0,2.14,153.25,2.74,'1111122,1111122,1111122' 
COMPS,ioos:station:USF.COMPS:BGC:1,2013-12-04T00:06:00Z,26.4040,-81.8810,10.0,1.83,141.45,2.45,'1111122,1111122,1111122' 
COMPS,ioos:station:USF.COMPS:BGC:1,2013-12-04T00:12:00Z,26.4040,-81.8810,10.0,2.15,142.34,3.03,'1111122,1111122,1111122' 
COMPS,ioos:station:USF.COMPS:BGC:1,2013-12-04T00:18:00Z,26.4040,-81.8810,10.0,2.25,145.78,2.94,'1111122,1111122,1111122' 
COMPS,ioos:station:USF.COMPS:BGC:1,2013-12-04T00:24:00Z,26.4040,-81.8810,10.0,2.49,142.97,3.33,'1111122,1111122,1111122' 
COMPS,ioos:station:USF.COMPS:BGC:1,2013-12-04T00:30:00Z,26.4040,-81.8810,10.0,2.0,148.04,2.94,'1111122,1111122,1111122' 
COMPS,ioos:station:USF.COMPS:BGC:1,2013-12-04T00:36:00Z,26.4040,-81.8810,10.0,1.91,141.0,2.54,'1111122,1111122,1111122' 
COMPS,ioos:station:USF.COMPS:BGC:1,2013-12-04T00:42:00Z,26.4040,-81.8810,10.0,1.77,133.61,2.35,'1111122,1111122,1111122' 
COMPS,ioos:station:USF.COMPS:BGC:1,2013-12-04T00:48:00Z,26.4040,-81.8810,10.0,1.64,131.44,2.15,'1111122,1111122,1111122' 
COMPS,ioos:station:USF.COMPS:BGC:1,2013-12-04T00:54:00Z,26.4040,-81.8810,10.0,1.87,129.07,2.35,'1111122,1111122,1111122' 
COMPS,ioos:station:USF.COMPS:BGC:1,2013-12-04T01:00:00Z,26.4040,-81.8810,10.0,1.62,127.15,1.96,'1111122,1111122,1111122' 
COMPS,ioos:station:USF.COMPS:BGC:1,2013-12-04T01:06:00Z,26.4040,-81.8810,10.0,1.74,127.97,2.05,'1111122,1111122,1111122' 
COMPS,ioos:station:USF.COMPS:BGC:1,2013-12-04T01:12:00Z,26.4040,-81.8810,10.0,1.9,127.69,2.25,'1111122,1111122,1111122' 
COMPS,ioos:station:USF.COMPS:BGC:1,2013-12-04T01:18:00Z,26.4040,-81.8810,10.0,1.88,135.88,2.35,'1111122,1111122,1111122' 
COMPS,ioos:station:USF.COMPS:BGC:1,2013-12-04T01:24:00Z,26.4040,-81.8810,10.0,2.23,140.73,2.64,'1111122,1111122,1111122' 
COMPS,ioos:station:USF.COMPS:BGC:1,2013-12-04T01:30:00Z,26.4040,-81.8810,10.0,2.45,139.73,2.74,'1111122,1111122,1111122' 
COMPS,ioos:station:USF.COMPS:BGC:1,2013-12-04T01:36:00Z,26.4040,-81.8810,10.0,2.23,142.7,2.94,'1111122,1111122,1111122' 
COMPS,ioos:station:USF.COMPS:BGC:1,2013-12-04T01:42:00Z,26.4040,-81.8810,10.0,2.18,139.08,2.84,'1111122,1111122,1111122' 
COMPS,ioos:station:USF.COMPS:BGC:1,2013-12-04T01:48:00Z,26.4040,-81.8810,10.0,2.09,137.42,2.64,'1111122,1111122,1111122' 
COMPS,ioos:station:USF.COMPS:BGC:1,2013-12-04T01:54:00Z,26.4040,-81.8810,10.0,1.89,133.76,2.64,'1111122,1111122,1111122' 
COMPS,ioos:station:USF.COMPS:BGC:1,2013-12-04T02:00:00Z,26.4040,-81.8810,10.0,2.28,140.2,3.23,'1111122,1111122,1111122' 
COMPS,ioos:station:USF.COMPS:BGC:1,2013-12-04T02:06:00Z,26.4040,-81.8810,10.0,2.4,141.22,2.94,'1111122,1111122,1111122' 
COMPS,ioos:station:USF.COMPS:BGC:1,2013-12-04T02:12:00Z,26.4040,-81.8810,10.0,2.61,138.94,3.52,'1111122,1111122,1111122' 
COMPS,ioos:station:USF.COMPS:BGC:1,2013-12-04T02:18:00Z,26.4040,-81.8810,10.0,2.64,140.79,3.13,'1111122,1111122,1111122' 
COMPS,ioos:station:USF.COMPS:BGC:1,2013-12-04T02:24:00Z,26.4040,-81.8810,10.0,2.8,148.02,3.92,'1111122,1111122,1111122' 
COMPS,ioos:station:USF.COMPS:BGC:1,2013-12-04T02:30:00Z,26.4040,-81.8810,10.0,2.83,148.82,3.72,'1111122,1111122,1111122' 
COMPS,ioos:station:USF.COMPS:BGC:1,2013-12-04T02:36:00Z,26.4040,-81.8810,10.0,2.56,152.37,3.62,'1111122,1111122,1111122' 
COMPS,ioos:station:USF.COMPS:BGC:1,2013-12-04T02:42:00Z,26.4040,-81.8810,10.0,2.07,152.62,3.13,'1111122,1111122,1111122' 
COMPS,ioos:station:USF.COMPS:BGC:1,2013-12-04T02:48:00Z,26.4040,-81.8810,10.0,2.33,147.87,3.43,'1111122,1111122,1111122' 
COMPS,ioos:station:USF.COMPS:BGC:1,2013-12-04T02:54:00Z,26.4040,-81.8810,10.0,2.8,146.41,3.92,'1111122,1111122,1111122' 
COMPS,ioos:station:USF.COMPS:BGC:1,2013-12-04T03:00:00Z,26.4040,-81.8810,10.0,2.92,145.38,3.62,'1111122,1111122,1111122' 
COMPS,ioos:station:USF.COMPS:BGC:1,2013-12-04T03:06:00Z,26.4040,-81.8810,10.0,2.8,141.08,3.52,'1111122,1111122,1111122' 
COMPS,ioos:station:USF.COMPS:BGC:1,2013-12-04T03:12:00Z,26.4040,-81.8810,10.0,3.33,147.51,4.31,'1111122,1111122,1111122' 
COMPS,ioos:station:USF.COMPS:BGC:1,2013-12-04T03:18:00Z,26.4040,-81.8810,10.0,3.18,149.9,4.11,'1111122,1111122,1111122' 
COMPS,ioos:station:USF.COMPS:BGC:1,2013-12-04T03:24:00Z,26.4040,-81.8810,10.0,3.47,153.4,4.11,'1111122,1111122,1111122' 
COMPS,ioos:station:USF.COMPS:BGC:1,2013-12-04T03:30:00Z,26.4040,-81.8810,10.0,3.03,158.95,4.01,'1111122,1111122,1111122' 
COMPS,ioos:station:USF.COMPS:BGC:1,2013-12-04T03:36:00Z,26.4040,-81.8810,10.0,3.6,162.76,4.6,'1111122,1111122,1111122' 
COMPS,ioos:station:USF.COMPS:BGC:1,2013-12-04T03:42:00Z,26.4040,-81.8810,10.0,3.89,166.35,5.19,'1111122,1111122,1111122' 
COMPS,ioos:station:USF.COMPS:BGC:1,2013-12-04T03:48:00Z,26.4040,-81.8810,10.0,4.2,165.92,5.48,'1111122,1111122,1111122' 
COMPS,ioos:station:USF.COMPS:BGC:1,2013-12-04T03:54:00Z,26.4040,-81.8810,10.0,3.93,165.34,4.7,'1111122,1111122,1111122' 
COMPS,ioos:station:USF.COMPS:BGC:1,2013-12-04T04:00:00Z,26.4040,-81.8810,10.0,4.04,161.77,4.99,'1111122,1111122,1111122' 
COMPS,ioos:station:USF.COMPS:BGC:1,2013-12-04T04:06:00Z,26.4040,-81.8810,10.0,3.66,161.26,4.6,'1111122,1111122,1111122' 
COMPS,ioos:station:USF.COMPS:BGC:1,2013-12-04T04:12:00Z,26.4040,-81.8810,10.0,3.8,159.31,5.19,'1111122,1111122,1111122' 
COMPS,ioos:station:USF.COMPS:BGC:1,2013-12-04T04:18:00Z,26.4040,-81.8810,10.0,4.18,160.43,5.39,'1111122,1111122,1111122' 
COMPS,ioos:station:USF.COMPS:BGC:1,2013-12-04T04:24:00Z,26.4040,-81.8810,10.0,4.39,160.32,5.48,'1111122,1111122,1111122' 
COMPS,ioos:station:USF.COMPS:BGC:1,2013-12-04T04:30:00Z,26.4040,-81.8810,10.0,3.69,166.62,4.41,'1111122,1111122,1111122' 
COMPS,ioos:station:USF.COMPS:BGC:1,2013-12-04T04:36:00Z,26.4040,-81.8810,10.0,3.45,164.83,4.6,'1111122,1111122,1111122' 
COMPS,ioos:station:USF.COMPS:BGC:1,2013-12-04T04:42:00Z,26.4040,-81.8810,10.0,3.63,161.61,4.7,'1111122,1111122,1111122' 
COMPS,ioos:station:USF.COMPS:BGC:1,2013-12-04T04:48:00Z,26.4040,-81.8810,10.0,3.46,160.37,4.31,'1111122,1111122,1111122' 
COMPS,ioos:station:USF.COMPS:BGC:1,2013-12-04T04:54:00Z,26.4040,-81.8810,10.0,3.34,154.93,4.21,'1111122,1111122,1111122' 
COMPS,ioos:station:USF.COMPS:BGC:1,2013-12-04T05:00:00Z,26.4040,-81.8810,10.0,3.7,158.81,4.5,'1111122,1111122,1111122' 
COMPS,ioos:station:USF.COMPS:BGC:1,2013-12-04T05:06:00Z,26.4040,-81.8810,10.0,3.28,159.23,4.11,'1111122,1111122,1111122' 
COMPS,ioos:station:USF.COMPS:BGC:1,2013-12-04T05:12:00Z,26.4040,-81.8810,10.0,3.37,159.68,4.5,'1111122,1111122,1111122' 
COMPS,ioos:station:USF.COMPS:BGC:1,2013-12-04T05:18:00Z,26.4040,-81.8810,10.0,3.41,162.99,4.41,'1111122,1111122,1111122' 
COMPS,ioos:station:USF.COMPS:BGC:1,2013-12-04T05:24:00Z,26.4040,-81.8810,10.0,2.86,158.4,3.52,'1111122,1111122,1111122' 
COMPS,ioos:station:USF.COMPS:BGC:1,2013-12-04T05:30:00Z,26.4040,-81.8810,10.0,2.68,154.11,3.62,'1111122,1111122,1111122' 
COMPS,ioos:station:USF.COMPS:BGC:1,2013-12-04T05:36:00Z,26.4040,-81.8810,10.0,2.69,152.84,3.62,'1111122,1111122,1111122' 
COMPS,ioos:station:USF.COMPS:BGC:1,2013-12-04T05:42:00Z,26.4040,-81.8810,10.0,2.05,147.21,2.84,'1111122,1111122,1111122' 
COMPS,ioos:station:USF.COMPS:BGC:1,2013-12-04T05:48:00Z,26.4040,-81.8810,10.0,1.76,136.48,2.25,'1111122,1111122,1111122' 
COMPS,ioos:station:USF.COMPS:BGC:1,2013-12-04T05:54:00Z,26.4040,-81.8810,10.0,1.95,133.99,2.35,'1111122,1111122,1111122' 
COMPS,ioos:station:USF.COMPS:BGC:1,2013-12-04T06:00:00Z,26.4040,-81.8810,10.0,2.09,130.73,2.64,'1111122,1111122,1111122' 
COMPS,ioos:station:USF.COMPS:BGC:1,2013-12-04T06:06:00Z,26.4040,-81.8810,10.0,2.16,130.44,2.54,'1111122,1111122,1111122' 
COMPS,ioos:station:USF.COMPS:BGC:1,2013-12-04T06:12:00Z,26.4040,-81.8810,10.0,1.96,125.23,2.45,'1111122,1111122,1111122' 
COMPS,ioos:station:USF.COMPS:BGC:1,2013-12-04T06:18:00Z,26.4040,-81.8810,10.0,1.94,119.22,2.25,'1111122,1111122,1111122' 
COMPS,ioos:station:USF.COMPS:BGC:1,2013-12-04T06:24:00Z,26.4040,-81.8810,10.0,2.09,119.57,2.54,'1111122,1111122,1111122' 
COMPS,ioos:station:USF.COMPS:BGC:1,2013-12-04T06:30:00Z,26.4040,-81.8810,10.0,2.11,118.46,2.54,'1111122,1111122,1111122' 
COMPS,ioos:station:USF.COMPS:BGC:1,2013-12-04T06:36:00Z,26.4040,-81.8810,10.0,2.06,126.86,2.64,'1111122,1111122,1111122' 
COMPS,ioos:station:USF.COMPS:BGC:1,2013-12-04T06:42:00Z,26.4040,-81.8810,10.0,2.28,130.95,2.74,'1111122,1111122,1111122' 
COMPS,ioos:station:USF.COMPS:BGC:1,2013-12-04T06:48:00Z,26.4040,-81.8810,10.0,2.44,135.55,3.13,'1111122,1111122,1111122' 
COMPS,ioos:station:USF.COMPS:BGC:1,2013-12-04T06:54:00Z,26.4040,-81.8810,10.0,2.55,131.79,2.94,'1111122,1111122,1111122' 
COMPS,ioos:station:USF.COMPS:BGC:1,2013-12-04T07:00:00Z,26.4040,-81.8810,10.0,2.3,123.51,3.03,'1111122,1111122,1111122' 
COMPS,ioos:station:USF.COMPS:BGC:1,2013-12-04T07:06:00Z,26.4040,-81.8810,10.0,2.29,119.34,2.54,'1111122,1111122,1111122' 
COMPS,ioos:station:USF.COMPS:BGC:1,2013-12-04T07:12:00Z,26.4040,-81.8810,10.0,1.94,115.61,2.54,'1111122,1111122,1111122' 
COMPS,ioos:station:USF.COMPS:BGC:1,2013-12-04T07:18:00Z,26.4040,-81.8810,10.0,1.91,123.2,2.25,'1111122,1111122,1111122' 
COMPS,ioos:station:USF.COMPS:BGC:1,2013-12-04T07:24:00Z,26.4040,-81.8810,10.0,2.04,122.76,2.64,'1111122,1111122,1111122' 
COMPS,ioos:station:USF.COMPS:BGC:1,2013-12-04T07:30:00Z,26.4040,-81.8810,10.0,1.99,112.93,2.35,'1111122,1111122,1111122' 
COMPS,ioos:station:USF.COMPS:BGC:1,2013-12-04T07:36:00Z,26.4040,-81.8810,10.0,2.06,107.88,2.35,'1111122,1111122,1111122' 
COMPS,ioos:station:USF.COMPS:BGC:1,2013-12-04T07:42:00Z,26.4040,-81.8810,10.0,2.13,103.46,2.45,'1111122,1111122,1111122' 
COMPS,ioos:station:USF.COMPS:BGC:1,2013-12-04T07:48:00Z,26.4040,-81.8810,10.0,2.06,114.07,2.45,'1111122,1111122,1111122' 
COMPS,ioos:station:USF.COMPS:BGC:1,2013-12-04T07:54:00Z,26.4040,-81.8810,10.0,2.4,124.18,2.74,'1111122,1111122,1111122' 
COMPS,ioos:station:USF.COMPS:BGC:1,2013-12-04T08:00:00Z,26.4040,-81.8810,10.0,2.78,126.1,3.03,'1111122,1111122,1111122' 
COMPS,ioos:station:USF.COMPS:BGC:1,2013-12-04T08:06:00Z,26.4040,-81.8810,10.0,2.68,114.15,3.33,'1111122,1111122,1111122' 
COMPS,ioos:station:USF.COMPS:BGC:1,2013-12-04T08:12:00Z,26.4040,-81.8810,10.0,2.84,113.09,3.72,'1111122,1111122,1111122' 
COMPS,ioos:station:USF.COMPS:BGC:1,2013-12-04T08:18:00Z,26.4040,-81.8810,10.0,2.92,111.45,3.72,'1111122,1111122,1111122' 
COMPS,ioos:station:USF.COMPS:BGC:1,2013-12-04T08:24:00Z,26.4040,-81.8810,10.0,2.69,116.65,3.33,'1111122,1111122,1111122' 
COMPS,ioos:station:USF.COMPS:BGC:1,2013-12-04T08:30:00Z,26.4040,-81.8810,10.0,2.52,118.93,3.33,'1111122,1111122,1111122' 
COMPS,ioos:station:USF.COMPS:BGC:1,2013-12-04T08:36:00Z,26.4040,-81.8810,10.0,2.39,111.9,2.84,'1111122,1111122,1111122' 
COMPS,ioos:station:USF.COMPS:BGC:1,2013-12-04T08:42:00Z,26.4040,-81.8810,10.0,2.7,108.39,3.62,'1111122,1111122,1111122' 
COMPS,ioos:station:USF.COMPS:BGC:1,2013-12-04T08:48:00Z,26.4040,-81.8810,10.0,2.58,107.54,3.33,'1111122,1111122,1111122' 
COMPS,ioos:station:USF.COMPS:BGC:1,2013-12-04T08:54:00Z,26.4040,-81.8810,10.0,2.41,106.23,3.03,'1111122,1111122,1111122' 
COMPS,ioos:station:USF.COMPS:BGC:1,2013-12-04T09:00:00Z,26.4040,-81.8810,10.0,2.03,113.29,2.45,'1111122,1111122,1111122' 
COMPS,ioos:station:USF.COMPS:BGC:1,2013-12-04T09:06:00Z,26.4040,-81.8810,10.0,2.14,107.72,2.64,'1111122,1111122,1111122' 
COMPS,ioos:station:USF.COMPS:BGC:1,2013-12-04T09:12:00Z,26.4040,-81.8810,10.0,2.37,105.45,3.43,'1111122,1111122,1111122' 
COMPS,ioos:station:USF.COMPS:BGC:1,2013-12-04T09:18:00Z,26.4040,-81.8810,10.0,2.41,113.5,3.13,'1111122,1111122,1111122' 
COMPS,ioos:station:USF.COMPS:BGC:1,2013-12-04T09:24:00Z,26.4040,-81.8810,10.0,2.5,114.31,3.43,'1111122,1111122,1111122' 
COMPS,ioos:station:USF.COMPS:BGC:1,2013-12-04T09:30:00Z,26.4040,-81.8810,10.0,2.55,112.87,3.13,'1111122,1111122,1111122' 
COMPS,ioos:station:USF.COMPS:BGC:1,2013-12-04T09:36:00Z,26.4040,-81.8810,10.0,2.53,117.29,3.13,'1111122,1111122,1111122' 
COMPS,ioos:station:USF.COMPS:BGC:1,2013-12-04T09:42:00Z,26.4040,-81.8810,10.0,2.71,124.65,3.13,'1111122,1111122,1111122' 
COMPS,ioos:station:USF.COMPS:BGC:1,2013-12-04T09:48:00Z,26.4040,-81.8810,10.0,2.54,127.44,3.03,'1111122,1111122,1111122' 
COMPS,ioos:station:USF.COMPS:BGC:1,2013-12-04T09:54:00Z,26.4040,-81.8810,10.0,2.61,120.68,3.33,'1111122,1111122,1111122' 
COMPS,ioos:station:USF.COMPS:BGC:1,2013-12-04T10:00:00Z,26.4040,-81.8810,10.0,2.46,118.42,2.94,'1111122,1111122,1111122' 
COMPS,ioos:station:USF.COMPS:BGC:1,2013-12-04T10:06:00Z,26.4040,-81.8810,10.0,2.46,121.21,2.94,'1111122,1111122,1111122' 
COMPS,ioos:station:USF.COMPS:BGC:1,2013-12-04T10:12:00Z,26.4040,-81.8810,10.0,2.34,131.84,2.74,'1111122,1111122,1111122' 
COMPS,ioos:station:USF.COMPS:BGC:1,2013-12-04T10:18:00Z,26.4040,-81.8810,10.0,2.41,139.11,3.03,'1111122,1111122,1111122' 
COMPS,ioos:station:USF.COMPS:BGC:1,2013-12-04T10:24:00Z,26.4040,-81.8810,10.0,2.64,143.72,3.52,'1111122,1111122,1111122' 
COMPS,ioos:station:USF.COMPS:BGC:1,2013-12-04T10:30:00Z,26.4040,-81.8810,10.0,2.4,141.37,3.13,'1111122,1111122,1111122' 
COMPS,ioos:station:USF.COMPS:BGC:1,2013-12-04T10:36:00Z,26.4040,-81.8810,10.0,2.87,129.32,3.43,'1111122,1111122,1111122' 
COMPS,ioos:station:USF.COMPS:BGC:1,2013-12-04T10:42:00Z,26.4040,-81.8810,10.0,2.77,121.11,3.23,'1111122,1111122,1111122' 
COMPS,ioos:station:USF.COMPS:BGC:1,2013-12-04T10:48:00Z,26.4040,-81.8810,10.0,2.56,116.02,3.13,'1111122,1111122,1111122' 
COMPS,ioos:station:USF.COMPS:BGC:1,2013-12-04T10:54:00Z,26.4040,-81.8810,10.0,2.1,121.96,2.64,'1111122,1111122,1111122' 
COMPS,ioos:station:USF.COMPS:BGC:1,2013-12-04T11:00:00Z,26.4040,-81.8810,10.0,2.11,117.35,2.74,'1111122,1111122,1111122' 
COMPS,ioos:station:USF.COMPS:BGC:1,2013-12-04T11:06:00Z,26.4040,-81.8810,10.0,2.09,108.47,2.74,'1111122,1111122,1111122' 
COMPS,ioos:station:USF.COMPS:BGC:1,2013-12-04T11:12:00Z,26.4040,-81.8810,10.0,1.97,98.96,2.45,'1111122,1111122,1111122' 
COMPS,ioos:station:USF.COMPS:BGC:1,2013-12-04T11:18:00Z,26.4040,-81.8810,10.0,1.97,93.55,2.45,'1111122,1111122,1111122' 
COMPS,ioos:station:USF.COMPS:BGC:1,2013-12-04T11:24:00Z,26.4040,-81.8810,10.0,2.09,93.58,2.64,'1111122,1111122,1111122' 
COMPS,ioos:station:USF.COMPS:BGC:1,2013-12-04T11:30:00Z,26.4040,-81.8810,10.0,1.83,78.4,2.35,'1111122,1111122,1111122' 